Content
SEND FEEDBACK

Daily
Averages
Monthly
Summary
Philippines

QUEZON CITY, PHILIPPINES


Home > Asia > Philippines
Elevation: 46 meters     Latitude: 14 39N     Longitude: 121 03E

WEATHER
 
SELECT A DAY
Number of Records: 172,421;   Date Range: 7/1/96 - 7/23/14
 
SHARE

PRINT THIS DATA

[ ← Previous Day ]
WEATHER ALMANAC - 4 MAY, 2013
[ Next Day → ]
[ °F ]   °C
Weather ElementAverageHighLow
Temperature30.6 °C35.6 °C (2:00 pm)27.8 °C (2:00 am)
Dewpoint24.7 °C26.1 °C (2:00 am)22.8 °C (5:00 pm)
Humidity70.1 %89 % (1:00 am)41 % (2:00 pm)
Barometer1010.5 hPa1012.9 hPa (11:00 pm)1008.1 hPa (2:00 pm)
Wind Speed9.5 km/h25.9 km/h (3:00 pm)
Weather ElementAverage
Visibility9.7 km
Wind DirectionSSE (160.6 °)

Weather ElementTotal
Precipitation---
Cooling Degree Days13.3 (Base 18.3)
Growing Degree Days21.7 (Base 10)
Averaged from 31 records on 4 May, 2013
WEATHER CONDITIONS BREAKOUT
WIND DIRECTION BREAKOUT
WEATHER BY HOUR - 4 MAY, 2013
[ °F ]   °C
Local TimeTemperatureDewpointHumidityBarometerVisibilityWind DirectionWind SpeedGust SpeedPrecipitationEventsConditions
1:00 AM28 °C26 °C89 %1009.1 hPa9 kmNorth (700°)3.7 km/hPartly Cloudy
2:00 AM27.8 °C26.1 °C88 %1009.8 hPa9.7 kmWSW (250°)3.5 km/hHaze
2:00 AM28 °C26 °C89 %1009.1 hPa9 kmWSW (250°)1.9 km/hPartly Cloudy
3:00 AM28 °C26 °C89 %1009.1 hPa9 kmVariable3.7 km/hPartly Cloudy
4:00 AM28 °C26 °C89 %1009.1 hPa9 kmVariable3.7 km/hScattered Clouds
5:00 AM27.8 °C26.1 °C89 %1010.2 hPa9.7 kmSSW (210°)3.5 km/hHaze
5:00 AM28 °C26 °C89 %1010.2 hPa9 kmVariable3.7 km/hScattered Clouds
6:00 AM29 °C26 °C84 %1011.2 hPa9 kmVariable1.9 km/hScattered Clouds
7:00 AM29 °C26 °C84 %1011.2 hPa9 kmVariable1.9 km/hScattered Clouds
8:00 AM30 °C26.1 °C74 %1011.9 hPa9.7 kmWSW (240°)7.2 km/hHaze
8:00 AM30 °C26 °C79 %1011.2 hPa10 kmWSW (250°)7.4 km/hScattered Clouds
9:00 AM30 °C26 °C79 %1012.2 hPa10 kmWest (270°)9.3 km/hMostly Cloudy
10:00 AM31 °C25 °C70 %1012.2 hPa10 kmWest (260°)14.8 km/hScattered Clouds
11:00 AM32.2 °C24.4 °C55 %1012.2 hPa9.7 kmWest (280°)10.8 km/hHaze
11:00 AM30 °C25 °C74 %1011.2 hPa10 kmWest (280°)13 km/hScattered Clouds
12:00 PM34 °C26 °C63 %1011.2 hPa10 kmWest (280°)14.8 km/hPartly Cloudy
1:00 PM33 °C24 °C59 %1010.2 hPa10 kmWest (260°)13 km/hPartly Cloudy
2:00 PM35.6 °C23.9 °C41 %1009.1 hPa9.7 kmSE (130°)14.3 km/hHaze
2:00 PM35 °C24 °C53 %1008.1 hPa10 kmSE (130°)13 km/hPartly Cloudy
3:00 PM35 °C23 °C49 %1009.1 hPa10 kmENE (70°)25.9 km/hScattered Clouds
4:00 PM32 °C23 °C59 %1009.1 hPa10 kmNE (40°)13 km/hScattered Clouds
5:00 PM32.2 °C22.8 °C48 %1009.1 hPa9.7 kmEast (90°)10.8 km/hHaze
5:00 PM32 °C23 °C59 %1009.1 hPa10 kmEast (90°)11.1 km/hMostly Cloudy
6:00 PM32 °C23 °C59 %1009.1 hPa10 kmESE (110°)14.8 km/hMostly Cloudy
7:00 PM31 °C24 °C66 %1010.2 hPa10 kmESE (110°)11.1 km/hScattered Clouds
8:00 PM30.6 °C24.4 °C63 %1011.2 hPa9.7 kmESE (120°)10.8 km/hHaze
8:00 PM31 °C24 °C66 %1011.2 hPa10 kmESE (120°)11.1 km/hPartly Cloudy
9:00 PM30 °C24 °C70 %1012.2 hPa10 kmESE (110°)13 km/hPartly Cloudy
10:00 PM30 °C24 °C70 %1012.2 hPa10 kmESE (110°)11.1 km/hPartly Cloudy
11:00 PM29.4 °C23.3 °C62 %1012.9 hPa9.7 kmESE (110°)7.2 km/hHaze
11:00 PM30 °C23 °C66 %1012.2 hPa10 kmESE (110°)7.4 km/hPartly Cloudy
Hourly data recorded from RPLL, located 0 kilometers away from Quezon City, Philippines







STORIES FROM OUR PARTNERS